www.pogodaiklimat.ru

Погода и климат >> Архив погоды >> Россия >> Ленинградская область >> Волосово


ПОГОДА в Волосово

  • Прогноз погоды в Волосово
  • Монитор погоды в Волосово
  • Климат города

АРХИВ ПОГОДЫ в Волосово

Время (UTC), дата Ветер
(напр.,м/с)
 
Видим.   Явления Облачность Т
(С)
Тd
(С)
f
(%)
Тe
(С)
Тes
(С)
Комфортность P
(гПа)
Po
(гПа)
Тmin
(С)
Tmax
(С)
R
(мм)
R24
(мм)
S
(см)
03 8.12 ЮВ 8-10
{11}
10 км позёмок {ливн. осадки, метель} 9/9 630 м
[Sc diur, vesp]
-3.3 -5.9 82 -12 -12 1002.8 986.7 -3.5 0.3
06 8.12 Ю 7-10
{11}
10 км позёмок {ливн. осадки, метель} 9/9 630 м
[Sc diur, vesp]
-3.2 -5.3 85 -11 -11 1002.4 986.3 -3.5 0.3 6
09 8.12 Ю 6
{11}
10 км позёмок {метель} 9/9 300 м
[Sc diur, vesp]
-3.3 -5.6 84 -11 -11 1001.7 985.6
12 8.12 ЮВ 8-10
{11}
10 км позёмок {метель} 9/9 570 м
[Sc diur, vesp]
-3.0 -5.8 81 -11 -11 1000.1 984.0
15 8.12 ЮВ 8-11
{13}
10 км позёмок {метель} 9/9 540 м
[Sc diur, vesp]
-2.8 -5.7 80 -11 -11 998.9 982.9
18 8.12 Ю 7-10
{12}
4000 м слабый ливневой снег {метель} 9/9 540 м
[Cb cap]
-2.8 -4.5 88 -11 -11 998.1 982.1 -2.6 0.1
21 8.12 Ю 7-10
{12}
4000 м слабый ливневой снег {метель} 10/10 500 м
[Cb cap]
-2.9 -4.6 88 -11 -11 998.4 982.4
00 9.12 Ю 6
{10}
4000 м слабый ливневой снег {метель} 10/10 540 м
[Cb cap]
-2.9 -4.3 90 -10 -10 998.4 982.4
03 9.12 Ю 6 10 км {ливн. осадки, метель} 9/9 600 м
[Sc diur, vesp]
-2.8 -3.7 94 -10 -10 998.0 982.0 -3.0 1
06 9.12 ЮВ 6
{10}
10 км {ливн. осадки, метель} 9/9 630 м
[Sc diur, vesp]
-2.6 -3.5 94 -10 -10 998.1 982.1 -3.0 1 7
09 9.12 ЮВ 6 10 км 9/9 660 м
[Sc diur, vesp]
-2.0 -3.4 90 -9 -9 998.6 982.6
12 9.12 ЮВ 5 10 км 9/9 700 м
[Sc diur, vesp]
-1.3 -3.1 88 -8 -8 998.2 982.3
15 9.12 ЮВ 5 10 км 9/9 660 м
[Sc diur, vesp]
-1.5 -3.1 89 -8 -8 998.4 992.5
18 9.12 ЮВ 4 10 км 9/9 720 м
[Sc diur, vesp]
-1.4 -3.0 89 -7 -7 998.4 982.5 -1.3
21 9.12 ЮВ 3 10 км 9/9 660 м
[Sc diur, vesp]
-1.2 -2.8 89 -6 -6 998.6 982.7
00 10.12 В 3 10 км 9/9 720 м
[Sc diur, vesp]
-1.5 -3.1 89 -7 -7 998.3 982.4
03 10.12 В 3 10 км 9/9 750 м
[Sc diur, vesp]
-1.6 -3.2 89 -7 -7 998.1 982.2 -1.7
06 10.12 В 3 10 км 9/9 800 м
[Sc diur, vesp]
-1.7 -3.3 89 -7 -7 998.5 982.5 -1.8 7
09 10.12 ЮВ 3 10 км 9/9 750 м
[Sc diur, vesp]
-1.8 -3.4 89 -7 -7 999.3 983.3
12 10.12 В 3 10 км 9/9 800 м
[Sc diur, vesp]
-1.8 -3.6 87 -7 -7 1000.1 984.1
15 10.12 В 3 10 км 9/9 720 м
[Sc]
-2.1 -3.5 90 -7 -7 1001.7 985.7
18 10.12 В 3 4000 м слабый снег 10/10 450 м
[Frnb Ns]
-2.1 -3.4 91 -7 -7 1002.7 986.7 -1.7 0.3
21 10.12 В 3 4000 м слабый снег 10/10 420 м
[Frnb Ns]
-2.2 -3.5 91 -7 -7 1004.3 988.2
00 11.12 СВ 1 4000 м слабый снег 10/10 420 м
[Frnb Ns]
-2.2 -3.3 92 -5 -5 1005.8 989.7
03 11.12 СВ 1 4000 м слабый снег 10/10 300 м
[Frnb Ns]
-2.3 -3.4 92 -5 -5 1007.3 991.2 -2.3 3
06 11.12 СВ 2 4000 м слабый снег 10/10 360 м
[Frnb Ns]
-2.1 -3.0 94 -6 -6 1009.2 993.0 -2.3 3 10
09 11.12 С 2 4000 м дымка {снег} 10/10 300 м
[St]
-1.3 -2.5 92 -5 -5 1011.1 995.0
12 11.12 СВ 2 4000 м слабый снег 10/10 360 м
[Frnb Ns]
-1.2 -2.5 91 -5 -5 1012.8 996.6
15 11.12 С 2 4000 м слабый снег 10/10 360 м
[Frnb Ns]
-1.2 -2.2 93 -5 -5 1014.5 998.4 1
18 11.12 С 3 4000 м дымка {снег} 10/10 330 м
[St]
-0.7 -1.7 93 -6 -6 1016.3 1000.1 -0.6 0.7
21 11.12 С 3 4000 м дымка 10/10 360 м
[St]
-1.1 -2.1 93 -6 -6 1018.3 1002.1
00 12.12 С 3 4000 м дымка 10/10 360 м
[St]
-1.9 -2.7 94 -7 -7 1019.9 1003.6
03 12.12 С 4 10 км {ливн. осадки} 9/9 630 м
[Sc diur, vesp]
-2.1 -2.9 94 -8 -8 1021.3 1005.0 -2.1 0.5
06 12.12 С 4 10 км {ливн. осадки} 9/9 630 м
[Sc diur, vesp]
-2.1 -3.6 89 -8 -8 1023.3 1006.9 -2.2 0.6 11
09 12.12 С 3 10 км 9/9 630 м
[Sc diur, vesp]
-2.8 -4.6 87 -8 -8 1025.0 1008.6
12 12.12 С 3 10 км {ливн. осадки} 10/10 540 м
[Cb cap]
-3.3 -5.1 87 -9 -9 1025.9 1009.4
15 12.12 С 3 10 км {ливн. осадки} 10/10 540 м
[Cb cap]
-3.7 -5.3 89 -9 -9 1026.9 1010.4 1
18 12.12 С 4 10 км {ливн. осадки} 9/9 630 м
[Sc diur, vesp]
-3.4 -4.8 90 -10 -10 1027.4 1010.9 -2.1 1
21 12.12 СВ 3 10 км 9/9 660 м
[Sc diur, vesp]
-2.3 -3.7 90 -7 -7 1028.3 1011.8
00 13.12 С 3 10 км 9/9 700 м
[Sc diur, vesp]
-1.7 -3.1 90 -7 -7 1029.0 1012.6
03 13.12 СВ 4 10 км {ливн. осадки} 9/9 720 м
[Sc diur, vesp]
-1.2 -2.6 90 -7 -7 1029.5 1013.1 -3.7 0.4
06 13.12 СВ 3 10 км {ливн. осадки} 9/9 720 м
[Sc diur, vesp]
-1.4 -3.0 89 -6 -6 1030.4 1014.0 -3.4 0.1 12
09 13.12 СВ 5 10 км 9/9 700 м
[Sc diur, vesp]
-1.4 -3.5 86 -8 -8 1031.3 1014.8
12 13.12 СВ 4
{10}
10 км 9/9 700 м
[Sc diur, vesp]
-2.5 -4.9 84 -8 -8 1031.7 1015.2
15 13.12 СВ 4
{10}
10 км 9/9 660 м
[Sc]
-3.5 -5.9 83 -10 -10 1032.1 1015.5
18 13.12 СВ 3 10 км 9/9 600 м
[Sc]
-3.6 -6.6 80 -9 -9 1032.6 1016.0 -1.3
21 13.12 В 2 10 км 9/9 630 м
[Sc]
-4.1 -6.4 84 -8 -8 1033.3 1033.0
00 14.12 СВ 2 10 км 9/9 570 м
[Sc]
-4.4 -6.7 84 -9 -9 1033.6 1016.9
03 14.12 СВ 2 10 км 9/9 540 м
[Sc]
-4.8 -6.9 85 -9 -9 1033.5 1016.8 -4.8
06 14.12 СВ 2 10 км 9/9 660 м
[Sc]
-5.0 -7.1 85 -9 -9 1034.0 1017.3 -5.0 2
12 14.12 В 3 10 км 9/9 750 м
[Sc]
-4.4 -6.8 83 -10 -10 1034.7 1018.0
18 14.12 СВ 3 10 км 9/9 750 м
[Sc diur, vesp]
-5.7 -7.1 90 -11 -11 1035.9 1019.1 -4.2

 

Местоположение метеостанции Волосово (Ленинградская область, Россия): широта 59.43 долгота 29.50 высота над уровнем моря 129 м.

В архиве по умолчанию представлена погода в Волосово за последнюю неделю. Архивные данные за месяц целиком и за предыдущие месяцы, начиная с января 2011 года, Вы можете получить, выбрав интересующий диапазон дат из раскрывающегося списка и нажав кнопку "Ввод!".


*Определитесь, кто Вы:
робот инопланетянин человек

Внимание! Время в таблицах - всемирное. Для получения местного времени необходимо прибавить поправку, которая в Волосово равна 3 ч.

Смотрите также архив погоды в соседних городах и на ближайших метеорологических станциях:

Погода в Белогорке (Ленинградская область, Россия) (37 км)
Погода в Сосновом Бору (Ленинградская область, Россия) (47 км)
Погода в Шепелево (Ленинградская область, Россия) (48 км)
Погода в Кингисеппе (Ленинградская область, Россия) (51 км)
Погода в Ломоносове (город Санкт-Петербург, Россия) (57 км)
Погода в Кронштадте (город Санкт-Петербург, Россия) (63 км)
Погода в Лисьем Носу (город Санкт-Петербург, Россия) (71 км)
Погода в Санкт-Петербурге (город Санкт-Петербург, Россия) (75 км)
Погода в Narva (Эстония) (78 км)
Погода в Сланцах (Ленинградская область, Россия) (88 км)

Пояснения к столбцам:

Ветер - указаны скорость ветра в м/с - средняя за 10 мин, порывы в срок и между сроками (в фигурных скобках) и направление, откуда дует ветер: С - северный, СВ - северо-восточный, В - восточный, ЮВ - юго-восточный, Ю - южный, ЮЗ - юго-западный, З - западный, СЗ - северо-западный.
Видимость - горизонтальная дальность видимости в метрах или километрах. При видимости от 1 до 10 км при отсутствии осадков обычно наблюдается дымка, при ухудшении видимости до 1 км и менее - туман. В сухую погоду видимость может ухудшаться дымом, пылью или мглою.
Явления - указаны атмосферные явления, наблюдавшиеся в срок или в последний час перед сроком; фигурными скобками обозначены явления, наблюдавшиеся между сроками (за 1-3 часа до срока); квадратными скобками обозначены град или гололедные отложения с указанием их диаметра в мм.
Облачность - указаны через наклонную черту общая и нижняя облачность в баллах и высота нижней границы облаков в метрах; квадратными скобками обозначены формы облаков: Ci - перистые, Cs - перисто-слоистые, Cc - перисто-кучевые, Ac - высококучевые, As - высокослоистые, Sc - слоисто-кучевые, Ns - слоисто-дождевые, Cu - кучевые, Cb - кучево-дождевые. Подробнее классификацию облаков см. в Атласе облаков (PDF).
T - Температура воздуха - температура, измеренная на высоте 2 м над землей.
Td - Температура точки росы - температура, при понижении до которой содержащийся в воздухе водяной пар достигнет насыщения.
f - Относительная влажность воздуха - влажноcть воздуха, измеренная на высоте 2 м над землей.
Te - Эффективная температура - температура, которую ощущает одетый по сезону человек в тени. Характеристика душности погоды. При расчете учитывается влияние влажности воздуха и скорости ветра на теплоощущения человека.
Tes - Эффективная температура на солнце - температура, которую ощущает человек, с поправкой на солнечный нагрев. Характеристика знойности погоды. Зависит от высоты солнца над горизонтом, облачности и скорости ветра. Ночью, в пасмурную погоду, а также при ветре 12 м/с и более поправка равна нулю.
P - Атмосферное давление - приведенное к уровню моря атмосферное давление.
Po - Атмосферное давление - измеренное на уровне метеостанции атмосферное давление.
Tmin - Минимальная температура - минимум температуры воздуха на высоте 2 м над землей.
Tmax - Максимальная температура - максимум температуры воздуха на высоте 2 м над землей.
R - Количество осадков - Количество выпавших осадков за период времени, мм. При наведении курсора мыши на число - период времени, за который выпало указанное количество осадков.
R24 - Количество осадков - Количество выпавших осадков за 24 часа, мм.
S - Снежный покров - Высота снежного покрова, см. При наведении курсора мыши на число - состояние снежного покрова и степень покрытия местности в баллах.